CW1187 Weather Reports


time (UTC)temp
F
wind
direction
speed
knots
gust
knots
rain 1hr
in
rain 24hr
in
rain mn
in
humidity
%
barometer
mb
20260509043519 54 195 1.7 3.5 0.14 0.52 0.09 91 1009.6
20260509043051 54 0 0.9 4.3 0.14 0.51 0.08 91 1009.7
20260509042521 54 198 1.7 4.3 0.13 0.49 0.06 91 1009.7
20260509042021 54 183 1.7 3.5 0.13 0.48 0.05 91 1009.7
20260509041539 54 227 0.9 3.5 0.14 0.47 0.04 91 1009.7
20260509041021 54 213 1.7 3.5 0.14 0.46 0.03 91 1009.7
20260509040523 54 207 0.9 3.5 0.14 0.45 0.02 91 1009.9
20260509040042 54 213 0.9 3.5 0.14 0.44 0.01 91 1009.8
20260509035519 54 219 0.9 3.5 0.13 0.42 0.42 91 1009.9
20260509035021 54 246 0.9 2.6 0.12 0.41 0.41 91 1010.0
20260509034540 54 252 0.9 2.6 0.12 0.40 0.40 91 1010.1
20260509034020 55 252 0.9 2.6 0.11 0.39 0.39 91 1010.1
20260509033521 55 253 0.9 3.5 0.10 0.38 0.38 91 1010.1
20260509033041 55 252 0.0 3.5 0.10 0.37 0.37 91 1010.2
20260509032521 55 250 0.9 3.5 0.09 0.36 0.36 91 1010.2
20260509032021 55 253 0.9 3.5 0.09 0.35 0.35 91 1010.0
20260509031554 55 248 1.7 3.5 0.07 0.33 0.33 90 1010.2
20260509031020 55 254 0.9 3.5 0.07 0.32 0.32 90 1010.3
20260509030521 55 0 0.9 3.5 0.06 0.31 0.31 90 1010.4
20260509030058 55 252 0.9 3.5 0.06 0.30 0.30 90 1010.4
20260509025521 55 255 0.9 3.5 0.06 0.29 0.29 90 1010.4
20260509025017 55 254 0.9 2.6 0.07 0.29 0.29 90 1010.4
20260509024541 55 247 0.9 2.6 0.06 0.28 0.28 90 1010.4
20260509024018 55 254 0.9 2.6 0.07 0.28 0.28 90 1010.4
20260509023520 55 260 0.9 2.6 0.08 0.28 0.28 90 1010.4
20260509023037 55 261 0.0 2.6 0.08 0.27 0.27 90 1010.4
20260509022520 55 261 0.9 2.6 0.09 0.26 0.26 90 1010.6
20260509022020 55 0 0.9 2.6 0.10 0.26 0.26 90 1010.5
20260509021539 55 255 0.9 4.3 0.11 0.26 0.26 90 1010.5
20260509021019 55 243 1.7 4.3 0.11 0.25 0.25 90 1010.3
20260509020520 55 261 1.7 4.3 0.12 0.25 0.25 90 1010.4
20260509020041 55 252 1.7 3.5 0.12 0.24 0.24 90 1010.3
20260509015520 55 221 0.9 4.3 0.12 0.23 0.23 90 1010.3
20260509015021 55 270 1.7 4.3 0.12 0.22 0.22 89 1010.5
20260509014538 55 242 1.7 4.3 0.13 0.22 0.22 89 1010.5
20260509014020 55 240 1.7 6.1 0.13 0.20 0.20 89 1010.5
20260509013523 55 259 2.6 6.1 0.12 0.19 0.19 89 1010.5
20260509013038 55 258 1.7 5.2 0.12 0.18 0.18 89 1010.4
20260509012521 55 253 1.7 3.5 0.11 0.17 0.17 89 1010.1
20260509012021 55 263 0.9 4.3 0.11 0.16 0.16 89 1010.1
20260509011535 55 0 0.9 5.2 0.10 0.15 0.15 89 1010.0
20260509011022 55 276 1.7 5.2 0.09 0.14 0.14 88 1009.9
20260509010519 55 292 0.9 5.2 0.08 0.12 0.12 88 1009.9
20260509010040 55 292 0.9 3.5 0.08 0.12 0.12 88 1009.9
20260509005521 55 293 0.9 5.2 0.07 0.11 0.11 88 1009.9
20260509005019 55 290 0.9 5.2 0.06 0.10 0.10 88 1009.7
20260509004549 55 315 0.9 2.6 0.04 0.08 0.08 88 1009.9
20260509004023 55 321 0.9 3.5 0.03 0.07 0.07 87 1009.9
20260509003521 55 346 0.9 3.5 0.04 0.07 0.07 87 1009.5
20260509003049 55 339 0.9 4.3 0.03 0.06 0.06 87 1009.5
20260509002517 55 340 1.7 4.3 0.04 0.06 0.06 86 1009.4
20260509002020 55 327 1.7 4.3 0.03 0.05 0.05 86 1009.3
20260509001539 55 338 0.9 3.5 0.04 0.05 0.05 86 1009.6
20260509001020 55 332 0.9 3.5 0.04 0.05 0.05 86 1009.8
20260509000519 55 332 0.9 3.5 0.04 0.04 0.04 85 1009.8
20260509000035 55 327 0.9 3.5 0.04 0.04 0.04 85 1009.7
20260508235522 56 326 0.9 3.5 0.04 0.04 0.04 84 1009.6
20260508235025 56 299 0.9 2.6 0.04 0.04 0.04 84 1009.6
20260508234542 56 288 0.0 1.7 0.04 0.04 0.04 83 1009.7
20260508234020 56 288 0.0 1.7 0.04 0.04 0.04 83 1009.7
20260508233523 56 288 0.0 1.7 0.03 0.03 0.03 82 1009.8
20260508233041 56 288 0.0 2.6 0.03 0.03 0.03 82 1009.7
20260508232520 57 288 0.9 2.6 0.02 0.02 0.02 81 1009.7
20260508232020 57 288 0.9 3.5 0.02 0.02 0.02 79 1009.8
20260508231536 57 302 0.9 3.5 0.01 0.01 0.01 78 1009.8
20260508231021 58 298 1.7 3.5 0.00 0.00 0.00 83 1009.8
20260508230520 58 302 1.7 6.1 0.00 0.00 0.00 76 1009.8
20260508230035 58 303 1.7 6.1 0.00 0.00 0.00 75 1009.6
20260508225519 59 303 1.7 3.5 0.00 0.00 0.00 74 1009.6
20260508225021 59 299 1.7 3.5 0.00 0.00 0.00 74 1009.5
20260508224548 59 303 0.9 3.5 0.00 0.00 0.00 73 1009.4
20260508224023 60 290 1.7 3.5 0.00 0.00 0.00 72 1009.5
20260508223520 60 297 1.7 3.5 0.00 0.00 0.00 76 1009.5
20260508223049 61 293 1.7 5.2 0.00 0.00 0.00 69 1009.4
20260508222520 62 286 1.7 5.2 0.00 0.00 0.00 68 1009.4
20260508222020 62 277 0.9 5.2 0.00 0.00 0.00 67 1009.2
20260508221539 62 261 1.7 5.2 0.00 0.00 0.00 66 1009.2
20260508221023 62 279 1.7 7.8 0.00 0.00 0.00 64 1009.3
20260508220520 62 257 0.9 8.7 0.00 0.00 0.00 62 1009.2
20260508220048 63 258 3.5 10.4 0.00 0.00 0.00 60 1009.3
20260508215519 63 252 4.3 10.4 0.00 0.00 0.00 60 1009.1
20260508215020 63 244 4.3 8.7 0.00 0.00 0.00 59 1009.0
20260508214535 63 208 1.7 8.7 0.00 0.00 0.00 60 1009.1
20260508214017 63 216 2.6 8.7 0.00 0.00 0.00 58 1009.0
20260508213520 64 240 0.9 3.5 0.00 0.00 0.00 59 1009.1
20260508213035 64 250 1.7 3.5 0.00 0.00 0.00 60 1009.1
20260508212520 64 232 0.9 3.5 0.00 0.00 0.00 62 1009.1
20260508212022 64 199 0.9 3.5 0.00 0.00 0.00 57 1009.1
20260508211534 64 237 0.9 3.5 0.00 0.00 0.00 56 1009.1
20260508211020 64 224 0.9 3.5 0.00 0.00 0.00 56 1009.2
20260508210520 64 240 0.0 3.5 0.00 0.00 0.00 56 1009.2
20260508210044 64 0 0.9 4.3 0.00 0.00 0.00 55 1009.2
20260508205520 64 223 0.9 5.2 0.00 0.00 0.00 55 1009.2
20260508205020 65 236 2.6 5.2 0.00 0.00 0.00 60 1009.3
20260508204541 65 255 1.7 4.3 0.00 0.00 0.00 56 1009.2
20260508204020 65 245 1.7 4.3 0.00 0.00 0.00 55 1009.2
20260508203520 65 241 1.7 4.3 0.00 0.00 0.00 54 1009.3
20260508203041 65 229 2.6 6.1 0.00 0.00 0.00 57 1009.4
20260508202521 65 232 1.7 6.1 0.00 0.00 0.00 56 1009.4
20260508202023 65 211 2.6 5.2 0.00 0.00 0.00 60 1009.6
20260508201536 65 229 1.7 6.1 0.00 0.00 0.00 56 1009.7
20260508201022 65 235 2.6 7.0 0.00 0.00 0.00 55 1009.8
20260508200519 65 228 1.7 7.0 0.00 0.00 0.00 54 1009.8
20260508200035 65 228 2.6 7.0 0.00 0.00 0.00 53 1009.8
20260508195520 65 257 1.7 5.2 0.00 0.00 0.00 54 1010.2
20260508195021 65 235 1.7 6.1 0.00 0.00 0.00 53 1010.3
20260508194541 65 239 2.6 8.7 0.00 0.00 0.00 53 1010.4
20260508194019 65 232 3.5 10.4 0.00 0.00 0.00 52 1010.3
20260508193519 65 221 3.5 10.4 0.00 0.00 0.00 50 1010.3
20260508193038 65 223 2.6 8.7 0.00 0.00 0.00 52 1010.5
20260508192520 65 173 3.5 8.7 0.00 0.00 0.00 52 1010.7
20260508192020 65 226 2.6 9.6 0.00 0.00 0.00 52 1010.7
20260508191543 65 228 4.3 9.6 0.00 0.00 0.00 51 1010.7
20260508191020 66 256 4.3 8.7 0.00 0.00 0.00 57 1010.8
20260508190520 66 239 3.5 8.7 0.00 0.00 0.00 53 1010.8
20260508190038 66 238 3.5 8.7 0.00 0.00 0.00 54 1010.9
20260508185520 65 219 3.5 8.7 0.00 0.00 0.00 53 1010.9
20260508185021 65 234 4.3 9.6 0.00 0.00 0.00 52 1011.1
20260508184535 65 229 4.3 9.6 0.00 0.00 0.00 52 1011.1
20260508184019 65 239 2.6 9.6 0.00 0.00 0.00 53 1011.1
20260508183519 65 253 4.3 10.4 0.00 0.00 0.00 60 1011.1
20260508183043 65 232 3.5 10.4 0.00 0.00 0.00 53 1011.1
20260508182520 64 242 2.6 8.7 0.00 0.00 0.00 53 1011.1
20260508182019 64 243 2.6 9.6 0.00 0.00 0.00 56 1011.2
20260508181539 64 242 3.5 9.6 0.00 0.00 0.00 51 1011.2
20260508181021 65 232 5.2 15.6 0.00 0.00 0.00 51 1011.2
20260508180522 65 229 5.2 16.5 0.00 0.00 0.00 52 1011.3
20260508180040 66 214 7.0 16.5 0.00 0.00 0.00 48 1011.4
20260508175520 66 246 5.2 13.0 0.00 0.00 0.00 52 1011.3
20260508175020 66 217 4.3 13.0 0.00 0.00 0.00 50 1011.2
20260508174541 67 205 4.3 13.0 0.00 0.00 0.00 51 1011.4
20260508174023 67 196 5.2 13.0 0.00 0.00 0.00 51 1011.5
20260508173520 66 246 3.5 15.6 0.00 0.00 0.00 55 1011.6
20260508173042 66 227 5.2 15.6 0.00 0.00 0.00 55 1011.6
20260508172521 66 182 7.0 14.8 0.00 0.00 0.00 56 1011.6
20260508172022 65 223 6.1 14.8 0.00 0.00 0.00 53 1011.8
20260508171540 64 215 5.2 13.0 0.00 0.00 0.00 53 1011.9
20260508171020 63 227 4.3 8.7 0.00 0.00 0.00 56 1012.2
20260508170519 63 195 4.3 14.8 0.00 0.00 0.00 55 1012.4
20260508170039 63 234 4.3 14.8 0.00 0.00 0.00 54 1012.3
20260508165519 63 239 4.3 11.3 0.00 0.00 0.00 54 1012.5
20260508165025 63 212 4.3 11.3 0.00 0.00 0.00 60 1012.5
20260508164538 62 234 4.3 11.3 0.00 0.00 0.00 55 1012.7
20260508164020 62 219 3.5 10.4 0.00 0.00 0.00 56 1012.8
20260508163519 62 248 4.3 10.4 0.00 0.00 0.00 55 1012.8
20260508163038 62 185 4.3 15.6 0.00 0.00 0.00 55 1012.8
20260508162519 62 218 3.5 15.6 0.00 0.00 0.00 56 1012.8
20260508162019 62 184 3.5 9.6 0.00 0.00 0.00 60 1012.9
20260508161534 62 180 3.5 9.6 0.00 0.00 0.00 56 1013.0
20260508161020 62 234 4.3 8.7 0.00 0.00 0.00 55 1013.1
20260508160521 62 236 3.5 10.4 0.00 0.00 0.00 56 1013.1
20260508160040 62 223 3.5 10.4 0.00 0.00 0.00 56 1013.2
20260508155523 62 229 4.3 12.2 0.00 0.00 0.00 55 1013.3
20260508155021 63 195 4.3 12.2 0.00 0.00 0.00 54 1013.3
20260508154550 63 257 3.5 9.6 0.00 0.00 0.00 53 1013.2
20260508154020 65 190 3.5 8.7 0.00 0.00 0.00 53 1013.3
20260508153524 65 198 3.5 8.7 0.00 0.00 0.00 53 1013.4
20260508153041 65 250 4.3 8.7 0.00 0.00 0.00 54 1013.3
20260508152520 65 204 3.5 9.6 0.00 0.00 0.00 57 1013.3
20260508152020 64 242 5.2 10.4 0.00 0.00 0.00 55 1013.3
20260508151538 64 219 5.2 11.3 0.00 0.00 0.00 56 1013.3
20260508151022 63 232 6.1 11.3 0.00 0.00 0.00 61 1013.3
20260508150520 63 220 5.2 11.3 0.00 0.00 0.00 55 1013.2
20260508150051 63 215 5.2 11.3 0.00 0.00 0.00 56 1013.3
20260508145519 63 242 7.8 11.3 0.00 0.00 0.00 57 1013.4
20260508145018 62 220 4.3 11.3 0.00 0.00 0.00 58 1013.4
20260508144535 62 252 5.2 11.3 0.00 0.00 0.00 55 1013.5
20260508144019 62 248 4.3 9.6 0.00 0.00 0.00 58 1013.7
20260508143524 61 184 3.5 9.6 0.00 0.00 0.00 61 1013.7
20260508143052 61 222 3.5 13.0 0.00 0.00 0.00 56 1013.6
20260508142520 60 244 5.2 13.0 0.00 0.00 0.00 58 1013.7
20260508142020 60 235 4.3 11.3 0.00 0.00 0.00 57 1013.7
20260508141539 60 240 5.2 12.2 0.00 0.00 0.00 59 1013.7
20260508141021 59 228 7.0 12.2 0.00 0.00 0.00 58 1013.7
20260508140519 59 234 4.3 10.4 0.00 0.00 0.00 59 1013.7
20260508140047 58 234 3.5 10.4 0.00 0.00 0.00 64 1013.7
20260508135518 58 222 4.3 11.3 0.00 0.00 0.00 59 1013.8
20260508135021 58 242 4.3 11.3 0.00 0.00 0.00 59 1013.8
20260508134540 57 215 2.6 10.4 0.00 0.00 0.00 60 1013.8
20260508134019 57 237 4.3 10.4 0.00 0.00 0.00 60 1013.8
20260508133520 56 217 3.5 10.4 0.00 0.00 0.00 60 1013.8
20260508133032 56 188 4.3 10.4 0.00 0.00 0.00 65 1013.8
20260508132519 55 227 4.3 10.4 0.00 0.00 0.00 66 1013.9
20260508132020 55 252 2.6 8.7 0.00 0.00 0.00 63 1013.9
20260508131539 54 228 3.5 9.6 0.00 0.00 0.00 61 1013.9
20260508131020 54 234 4.3 9.6 0.00 0.00 0.00 62 1013.9
20260508130519 53 178 2.6 8.7 0.00 0.00 0.00 64 1013.9
20260508130039 53 228 3.5 9.6 0.00 0.00 0.00 63 1014.0
20260508125519 53 253 3.5 13.9 0.00 0.00 0.00 64 1014.0
20260508125020 52 239 3.5 13.9 0.00 0.00 0.00 64 1014.0
20260508124538 52 222 4.3 13.9 0.00 0.00 0.00 64 1014.0
20260508124019 52 218 2.6 9.6 0.00 0.00 0.00 65 1013.9
20260508123519 51 217 5.2 9.6 0.00 0.00 0.00 64 1013.9
20260508123043 51 198 2.6 8.7 0.00 0.00 0.00 65 1013.9
20260508122520 51 240 2.6 11.3 0.00 0.00 0.00 65 1013.9
20260508122018 51 221 1.7 11.3 0.00 0.00 0.00 71 1013.8
20260508121542 50 207 2.6 8.7 0.00 0.00 0.00 66 1013.8
20260508121019 50 222 1.7 9.6 0.00 0.00 0.00 66 1013.8
20260508120519 50 194 2.6 9.6 0.00 0.00 0.00 65 1013.7
20260508120043 50 169 2.6 7.8 0.00 0.00 0.00 66 1013.7
20260508115520 49 181 2.6 8.7 0.00 0.00 0.00 65 1013.7
20260508115019 49 203 2.6 8.7 0.00 0.00 0.00 66 1013.7
20260508114540 49 217 2.6 7.8 0.00 0.00 0.00 66 1013.7
20260508114019 49 224 3.5 7.0 0.00 0.00 0.00 66 1013.7
20260508113519 48 219 3.5 7.8 0.00 0.00 0.00 66 1013.7
20260508113039 48 188 3.5 9.6 0.00 0.00 0.00 67 1013.6
20260508112519 48 185 2.6 9.6 0.00 0.00 0.00 67 1013.6
20260508112019 48 205 2.6 7.0 0.00 0.00 0.00 67 1013.7
20260508111535 48 211 2.6 7.0 0.00 0.00 0.00 67 1013.5
20260508111019 48 197 2.6 9.6 0.00 0.00 0.00 67 1013.5
20260508110520 48 192 2.6 9.6 0.00 0.00 0.00 67 1013.5
20260508110039 47 216 2.6 6.1 0.00 0.00 0.00 68 1013.5
20260508105520 47 192 1.7 6.1 0.00 0.00 0.00 68 1013.4
20260508105019 47 200 1.7 6.1 0.00 0.00 0.00 68 1013.4
20260508104541 48 189 1.7 6.1 0.00 0.00 0.00 68 1013.3
20260508104020 48 229 1.7 5.2 0.00 0.00 0.00 68 1013.4
20260508103518 48 173 1.7 5.2 0.00 0.00 0.00 68 1013.3
20260508103048 48 224 0.9 4.3 0.00 0.00 0.00 68 1013.2
20260508102520 48 0 0.9 5.2 0.00 0.00 0.00 68 1013.2
20260508102018 48 202 0.9 5.2 0.00 0.00 0.00 68 1013.2
20260508101544 48 209 1.7 4.3 0.00 0.00 0.00 67 1013.2
20260508101019 48 181 1.7 4.3 0.00 0.00 0.00 67 1013.2
20260508100519 48 211 0.9 5.2 0.00 0.00 0.00 67 1013.2
20260508100038 48 189 1.7 5.2 0.00 0.00 0.00 67 1013.2
20260508095520 48 194 2.6 5.2 0.00 0.00 0.00 68 1013.1
20260508095019 48 238 1.7 6.1 0.00 0.00 0.00 69 1013.1
20260508094542 48 184 2.6 6.1 0.00 0.00 0.00 69 1013.1
20260508094023 48 198 1.7 5.2 0.00 0.00 0.00 70 1013.2
20260508093521 48 183 1.7 7.0 0.00 0.00 0.00 71 1013.2
20260508093040 49 207 1.7 7.0 0.00 0.00 0.00 72 1013.3
20260508092519 49 214 1.7 4.3 0.00 0.00 0.00 71 1013.4
20260508092019 49 221 1.7 4.3 0.00 0.00 0.00 71 1013.5
20260508091543 49 0 0.9 3.5 0.00 0.00 0.00 71 1013.6
20260508091022 49 0 0.9 4.3 0.00 0.00 0.00 71 1013.6
20260508090520 49 248 1.7 4.3 0.00 0.00 0.00 71 1013.8
20260508090041 49 257 1.7 3.5 0.00 0.00 0.00 69 1013.7
20260508085519 49 250 0.9 3.5 0.00 0.00 0.00 69 1013.6
20260508085020 49 209 0.9 3.5 0.00 0.00 0.00 68 1013.6
20260508084538 49 215 0.9 3.5 0.00 0.00 0.00 68 1013.5
20260508084021 49 246 0.9 3.5 0.00 0.00 0.00 67 1013.5
20260508083519 49 202 0.9 3.5 0.00 0.00 0.00 67 1013.4
20260508083043 49 215 0.9 3.5 0.00 0.00 0.00 67 1013.4
20260508082519 49 251 0.9 4.3 0.00 0.00 0.00 67 1013.4
20260508082020 49 245 1.7 4.3 0.00 0.00 0.00 67 1013.4
20260508081538 49 229 1.7 4.3 0.00 0.00 0.00 67 1013.3
20260508081017 49 236 1.7 3.5 0.00 0.00 0.00 66 1013.3
20260508080520 49 250 1.7 6.1 0.00 0.00 0.00 67 1013.4
20260508080052 49 242 1.7 6.1 0.00 0.00 0.00 66 1013.4
20260508075520 49 234 1.7 6.1 0.00 0.00 0.00 66 1013.3
20260508075020 49 231 0.9 6.1 0.00 0.00 0.00 66 1013.3
20260508074541 49 240 0.9 6.1 0.00 0.00 0.00 66 1013.2
20260508074020 49 209 1.7 5.2 0.00 0.00 0.00 65 1013.3
20260508073520 50 207 2.6 4.3 0.00 0.00 0.00 65 1013.4
20260508073049 49 229 1.7 4.3 0.00 0.00 0.00 65 1013.3
20260508072520 49 233 0.9 5.2 0.00 0.00 0.00 65 1013.3
20260508072020 49 251 1.7 5.2 0.00 0.00 0.00 64 1013.4
20260508071533 49 205 1.7 3.5 0.00 0.00 0.00 64 1013.4
20260508071018 49 217 1.7 3.5 0.00 0.00 0.00 70 1013.4
20260508070520 49 211 0.9 6.1 0.00 0.00 0.00 64 1013.4
20260508070043 49 225 1.7 6.1 0.00 0.00 0.00 64 1013.3
20260508065519 49 174 1.7 5.2 0.00 0.00 0.00 64 1013.4
20260508065021 49 205 0.9 6.1 0.00 0.00 0.00 64 1013.5
20260508064545 49 207 1.7 6.1 0.00 0.00 0.00 64 1013.5
20260508064018 49 247 1.7 7.0 0.00 0.00 0.00 64 1013.6
20260508063520 49 0 1.7 7.0 0.00 0.00 0.00 64 1013.7
20260508063037 49 207 2.6 7.0 0.00 0.00 0.00 64 1013.7
20260508062523 49 217 1.7 6.1 0.00 0.00 0.00 64 1013.8
20260508062020 49 212 1.7 5.2 0.00 0.00 0.00 64 1013.8
20260508061537 49 265 1.7 6.1 0.00 0.00 0.00 64 1013.8
20260508061019 49 230 1.7 7.8 0.00 0.00 0.00 63 1013.8
20260508060521 49 211 2.6 7.8 0.00 0.00 0.00 63 1013.8
20260508060035 49 211 0.9 5.2 0.00 0.00 0.00 64 1013.9
20260508055518 49 0 1.7 5.2 0.00 0.00 0.00 64 1013.9
20260508055020 49 242 1.7 5.2 0.00 0.00 0.00 64 1013.9
20260508054546 49 223 0.9 5.2 0.00 0.00 0.00 64 1014.0
20260508054018 49 251 1.7 5.2 0.00 0.00 0.00 63 1013.9
20260508053517 50 218 0.9 4.3 0.00 0.00 0.00 63 1013.9
20260508053050 50 182 2.6 4.3 0.00 0.00 0.00 63 1013.8
20260508052521 50 226 1.7 4.3 0.00 0.00 0.00 63 1013.9
20260508052019 50 227 0.9 5.2 0.00 0.00 0.00 63 1013.9
20260508051537 50 0 1.7 5.2 0.00 0.00 0.00 63 1014.0
20260508051020 50 211 2.6 5.2 0.00 0.00 0.00 62 1014.0
20260508050520 50 217 1.7 5.2 0.00 0.00 0.00 63 1014.1
20260508050051 50 247 1.7 6.1 0.00 0.00 0.00 63 1014.0
20260508045519 50 228 0.9 6.1 0.00 0.00 0.00 63 1014.0
20260508045020 50 238 1.7 4.3 0.00 0.00 0.00 63 1014.0
20260508044542 50 234 1.7 7.8 0.00 0.00 0.00 63 1014.0
20260508044021 50 194 1.7 7.8 0.00 0.00 0.00 63 1013.9